Ruth, California
Current Conditions -  °F | °C
As of 9:55 PM on Saturday 22 Nov 2014 (Local Time) from KFOT Reporting Station
Clear Clear  
Wind Chill: 43°   Ceiling: Unl
Heat Index: 46°   Visibility: 2.5mi
Dew Point: 46°   Wind: 7mph
Humidity: 100%   Direction: 140°SE
Pressure: 30.32"   Gusts: NA
Location:  40.4612°N, 123.541°W
Report Text: KFOT 230555Z AUTO 14006KT 2 1/2SM CLR 08/08 A3032 RMK AO1
Loading
Personal Weather Stations






























Interactive Weather Map New forecast layout! Learn more

10-Day Weather Forecast

Advertisements
Track Severe Weather on mobile